CAPE
0 0 0 0 0 1 1 4 0 0 0 0 0 0 0 0 99 22 0 0 0 0 0 0 0 0 0 0 0 0 0 0
0 0 0 0 0 0 0 0 0 0 0 0 0 0 0 22 58 56 0 0 0 0 0 0 0 0 0 0 0 0 0 0
0 0 0 0 0 11 1 1 0 0 0 0 0 1 2 2 27 3 57 0 0 0 0 0 0 0 0 0 0 0 0 0
0 0 0 0 0 60 15 1 16 0 0 0 0 0 5 1 0 0 17 31 0 0 0 0 0 0 0 0 0 0 0 0
0 0 0 0 0 0 0 0 0 0 0 0 0 0 0 0 0 0 6 0 85 7 0 0 0 6 0 0 0 0 0 9
0 0 0 0 0 0 0 0 0 0 0 0 0 0 0 0 0 0 31 46 98 106 27 0 0 9 21 4 0 11 29 44
0 0 0 0 0 0 0 0 0 0 0 0 0 0 0 0 1 7 13 129 181 150 161 16 0 106 45 44 32 42 68 105
0 0 0 0 0 0 0 0 0 0 0 0 0 0 0 0 0 0 0 197 183 202 202 232 155 128 169 136 224 221 212 217
0 0 0 0 0 0 0 0 0 0 0 0 0 0 0 0 0 0 0 8 426 304 305 319 404 379 352 235 293 389 270 277
0 0 0 0 0 0 0 0 0 0 0 0 0 0 0 0 0 0 0 0 54 500 464 507 609 475 544 385 356 232 289 294
0 0 0 0 0 0 0 0 0 0 0 0 0 0 0 0 0 0 0 0 0 168 571 665 648 474 677 641 621 504 464 375
0 0 0 0 0 0 0 0 0 0 0 0 0 0 0 0 0 0 0 0 0 36 285 627 675 490 746 844 848 701 736 674
0 0 0 0 0 0 0 0 0 0 0 0 0 0 0 0 0 0 0 0 0 0 105 373 653 600 845 992 1010 971 831 905
0 0 0 0 0 0 0 0 0 0 0 0 0 0 0 0 0 6 0 0 0 110 225 644 664 1198 1001 1017 1089 950 864 1053
0 0 0 0 0 0 0 0 0 0 0 0 0 0 0 0 0 0 0 0 0 148 289 796 1019 950 1366 1192 838 687 279 334
0 0 0 0 0 0 0 0 0 0 0 0 0 0 0 0 0 0 2 53 85 295 708 1204 1430 1367 1163 1144 837 350 276 160
0 0 0 0 0 0 0 0 0 0 0 0 0 0 0 0 0 0 24 132 337 665 1126 1462 1519 1478 1164 960 618 455 177 171
0 0 0 0 0 0 0 0 0 0 0 0 0 0 0 0 0 13 23 289 523 951 1365 1584 1495 1409 1226 932 493 328 237 176
0 0 0 0 0 0 0 0 0 0 0 0 0 0 0 0 0 40 148 381 591 1005 1603 1630 1481 1213 968 489 350 238 170 199
0 0 0 0 0 0 0 0 0 0 0 0 0 0 0 0 0 149 339 470 601 1053 1331 1318 1210 898 651 388 350 232 262 327
CIN
-0 -0 -0 -0 -0 -76 -3 -44 -1 -0 -0 -0 -0 -0 -0 -0 -238 -279 -0 -0 -0 -0 -0 -0 -0 -0 -0 -0 -0 -0 -0 -0
-0 -0 -0 -0 -0 -0 -0 -0 -0 -0 -0 -0 -0 -0 -0 -181 -225 -301 -0 -0 -0 -0 -0 -0 -0 -0 -0 -0 -0 -0 -0 -0
-0 -0 -0 -0 -0 -14 -6 -99 -0 -0 -0 -0 -0 -88 -26 -103 -226 -171 -377 -32 -0 -0 -0 -0 -0 -0 -0 -0 -0 -0 -0 -0
-0 -0 -0 -0 -0 -15 -44 -0 -0 -0 -0 -0 -0 -0 -94 -15 -0 -0 -233 -394 -0 -0 -0 -0 -19 -0 -0 -0 -0 -0 -0 -0
-0 -0 -0 -0 -0 -0 -0 -0 -0 -0 -0 -0 -0 -0 -0 -21 -0 -0 -141 -0 -336 -256 -0 -0 -0 -621 -0 -0 -0 -0 -0 -408
-0 -0 -0 -0 -0 -0 -0 -0 -0 -0 -0 -0 -0 -0 -0 -0 -0 -0 -185 -224 -308 -399 -483 -0 -0 -617 -606 -632 -0 -576 -541 -476
-0 -0 -0 -0 -0 -0 -0 -0 -0 -0 -0 -0 -0 -12 -0 -6 -10 -83 -170 -230 -311 -337 -433 -237 -0 -579 -597 -577 -568 -546 -504 -436
-0 -0 -0 -0 -0 -0 -0 -0 -0 -0 -0 -0 -0 -0 -0 -0 -0 -0 -0 -199 -277 -308 -365 -502 -506 -573 -583 -560 -516 -509 -475 -428
-0 -0 -0 -0 -0 -0 -0 -0 -0 -0 -0 -0 -0 -0 -0 -0 -0 -0 -0 -130 -226 -243 -324 -375 -427 -524 -574 -573 -546 -501 -494 -454
-0 -0 -0 -0 -0 -0 -0 -0 -0 -0 -0 -0 -0 -0 -0 -0 -0 -0 -0 -0 -148 -240 -255 -319 -370 -466 -509 -514 -532 -537 -504 -477
-0 -0 -0 -0 -0 -0 -0 -0 -0 -0 -0 -0 -0 -0 -0 -0 -0 -0 -0 -0 -0 -209 -211 -246 -293 -385 -422 -420 -445 -451 -429 -440
-0 -0 -0 -0 -0 -0 -0 -0 -0 -0 -0 -0 -0 -0 -0 -0 -0 -0 -0 -0 -0 -155 -174 -228 -266 -318 -313 -356 -365 -378 -342 -346
-0 -0 -0 -0 -0 -0 -0 -0 -0 -0 -0 -0 -0 -0 -0 -0 -0 -0 -0 -0 -0 -0 -187 -181 -211 -261 -241 -247 -254 -273 -281 -280
-0 -0 -0 -0 -0 -0 -0 -0 -0 -0 -0 -0 -0 -0 -0 -0 -0 -49 -0 -0 -0 -113 -137 -169 -186 -175 -186 -174 -169 -207 -223 -174
-0 -0 -0 -0 -0 -0 -0 -0 -0 -0 -0 -0 -0 -0 -0 -0 -0 -0 -0 -0 -0 -148 -152 -169 -191 -182 -131 -131 -157 -176 -246 -225
-0 -0 -0 -0 -0 -0 -0 -0 -0 -0 -0 -0 -0 -0 -0 -0 -0 -0 -60 -98 -99 -131 -175 -210 -219 -198 -161 -157 -208 -263 -248 -269
-0 -0 -0 -0 -0 -0 -0 -0 -0 -0 -0 -0 -0 -0 -0 -0 -0 -20 -129 -131 -125 -163 -218 -235 -228 -222 -197 -210 -265 -239 -251 -220
-0 -0 -0 -0 -0 -0 -0 -0 -0 -0 -0 -0 -0 -0 -0 -0 -0 -97 -118 -144 -171 -213 -231 -245 -255 -223 -195 -221 -260 -244 -224 -193
-0 -0 -0 -0 -0 -0 -0 -0 -0 -0 -0 -0 -0 -0 -0 -0 -0 -144 -140 -192 -247 -279 -220 -226 -212 -204 -194 -266 -250 -231 -200 -157
-0 -0 -0 -0 -0 -0 -0 -0 -0 -0 -0 -0 -0 -0 -0 -0 -0 -144 -220 -334 -342 -311 -241 -232 -210 -223 -230 -242 -206 -181 -131 -100
Wind_Speed
15 17 14 14 23 21 22 15 17 18 21 15 12 14 12 10 12 13 12 12 12 12 11 11 12 12 13 13 13 14 14 14
21 22 26 10 26 25 31 30 6 6 14 15 11 11 11 11 10 11 12 11 10 9 9 10 10 10 11 11 12 11 11 12
18 23 29 33 19 14 15 4 14 6 11 12 14 13 13 10 8 8 9 9 8 8 7 8 8 8 9 9 10 9 8 9
27 29 31 32 30 9 9 8 2 17 19 12 8 11 11 10 5 4 4 6 7 9 8 7 7 6 7 8 8 7 6 6
31 34 38 35 30 31 25 27 14 18 13 8 7 9 9 8 7 3 1 2 4 6 8 9 8 6 7 8 8 6 5 4
30 36 41 34 31 26 26 21 16 15 14 6 6 6 8 9 5 6 1 1 2 3 4 6 6 7 6 8 8 7 5 4
32 30 30 36 35 27 26 32 26 18 17 17 11 9 10 10 13 7 4 3 4 6 5 6 6 6 7 8 9 7 6 5
32 34 36 39 36 37 30 27 25 26 26 31 30 21 19 18 19 18 18 7 8 7 7 5 5 6 7 7 8 8 7 6
43 41 41 44 42 40 38 27 31 27 31 39 36 32 22 21 21 22 21 16 10 9 8 8 8 7 7 8 8 9 9 7
44 39 43 47 44 45 43 38 35 37 27 26 23 22 22 25 24 27 27 21 11 9 10 11 9 9 8 8 8 9 10 9
38 37 40 46 50 49 50 45 41 40 44 38 35 35 32 28 26 23 23 20 16 9 10 11 12 12 9 9 7 6 6 8
41 41 41 45 51 47 46 42 40 43 44 45 40 37 34 28 24 22 20 15 15 11 11 12 15 13 11 9 8 7 6 6
54 48 50 40 62 35 42 45 50 45 44 44 38 38 35 31 25 23 17 15 15 16 15 15 12 11 11 9 8 7 7 6
53 47 46 34 69 43 46 47 48 49 49 38 33 32 28 25 26 20 17 18 20 19 15 12 8 7 8 8 7 7 6 5
56 36 37 35 63 53 48 45 42 38 29 32 26 23 24 29 20 18 21 22 21 17 14 10 5 7 5 4 5 3 3 2
49 37 36 44 49 62 58 40 44 36 25 24 24 22 21 25 24 20 21 19 19 16 12 8 6 4 7 6 5 4 4 5
46 43 46 49 45 51 50 36 35 37 31 22 22 20 18 20 20 17 15 15 16 13 10 6 6 5 5 6 4 6 6 6
47 39 42 46 45 45 41 43 31 23 22 21 23 17 15 20 20 18 15 14 14 13 9 8 6 5 4 3 3 5 6 5
50 43 51 48 49 49 50 49 45 33 20 29 17 16 16 20 23 17 15 13 14 10 6 6 2 3 4 4 5 5 4 3
46 41 50 38 55 51 51 51 50 44 42 23 17 18 18 18 16 10 9 8 10 7 5 3 2 3 3 3 4 4 5 6
Wind_Direction
287 284 289 308 302 336 323 343 338 331 323 343 22 48 51 85 85 76 77 96 100 107 104 106 100 94 97 95 85 80 72 66
274 273 276 309 298 326 308 269 8 19 345 14 43 28 47 86 78 69 79 87 89 103 109 114 109 106 106 106 99 91 80 70
283 281 282 277 319 343 329 25 313 154 2 10 32 52 52 73 73 69 75 75 98 113 116 121 116 119 120 123 118 111 97 83
275 277 274 278 297 327 332 18 73 304 310 341 29 34 38 31 52 59 82 73 100 129 134 140 142 139 144 148 148 138 120 106
275 272 268 274 303 297 312 310 339 328 347 4 28 31 39 23 15 15 29 82 98 140 146 156 162 164 172 175 175 172 159 139
275 271 268 276 293 308 317 315 332 346 321 319 344 14 11 359 3 4 96 195 186 162 170 174 182 184 190 195 195 196 196 187
274 279 284 278 289 306 310 291 307 346 335 323 346 354 349 359 358 343 337 267 235 211 213 208 212 206 206 213 212 215 219 217
274 280 281 278 288 293 306 292 312 306 305 299 305 318 323 334 339 338 340 293 252 249 249 254 240 238 236 242 232 232 239 237
270 275 278 277 281 286 289 295 301 310 307 290 292 309 317 322 323 325 325 325 282 256 254 252 249 268 265 269 254 241 239 237
271 277 274 273 283 280 282 292 301 298 306 305 307 308 312 312 313 312 312 313 299 270 264 254 266 273 265 267 253 250 241 236
274 275 275 277 275 279 278 287 295 297 294 300 303 297 303 302 306 311 307 306 314 298 280 268 272 276 262 258 255 253 244 235
273 272 276 278 278 280 281 289 294 295 293 294 298 302 301 299 297 302 304 301 313 305 288 282 279 266 254 257 258 256 254 242
266 270 272 282 271 264 286 288 291 294 294 294 296 298 296 297 293 298 299 304 308 307 298 294 277 257 251 258 259 253 251 243
266 270 274 278 255 282 287 289 289 290 291 296 298 301 304 297 291 293 291 300 307 310 305 298 271 258 254 246 259 264 261 268
269 264 273 271 274 281 286 288 288 291 286 290 288 288 302 302 307 293 294 301 306 305 303 297 273 232 279 270 278 287 314 290
267 274 275 273 276 271 263 288 285 290 287 283 280 277 288 301 301 291 298 303 307 305 302 300 298 278 278 296 301 321 297 295
272 272 272 274 279 277 276 287 288 292 294 292 292 286 288 302 309 302 306 312 310 307 299 298 289 283 273 290 305 312 312 317
272 273 272 273 278 280 280 283 288 267 276 284 296 292 291 305 307 298 306 314 315 309 293 299 297 306 302 311 322 325 322 305
268 274 265 275 280 278 274 277 283 293 286 295 295 298 296 300 302 293 282 300 314 311 303 310 314 343 1 20 4 354 340 342
267 271 268 278 277 276 271 253 270 255 290 290 261 279 287 295 302 300 296 306 315 317 326 349 50 20 55 42 13 13 23 5